Weather History for Erie, PA

Change the Weather History Date:

Tuesday, October 1, 2013

  Actual Average Record
Temperature  
Mean Temperature 67 °F 58 °F  
Max Temperature 74 °F 66 °F 86 °F (1927)
Min Temperature 59 °F 50 °F 36 °F (1956)
Degree Days  
Heating Degree Days 0 8  
Month to date heating degree days 0 8  
Since 1 July heating degree days 132 132  
Cooling Degree Days 2 1  
Month to date cooling degree days 2 1  
Year to date cooling degree days 688 630  
Growing Degree Days 16 (Base 50)    
Moisture  
Dew Point 58 °F    
Average Humidity 76    
Maximum Humidity 90    
Minimum Humidity 61    
Precipitation  
Precipitation 0.00 in 0.15 in 2.24 in (1945)
Month to date precipitation 0.00 0.15  
Year to date precipitation 37.85 30.59  
Snow  
Snow 0.00 in 0.00 in - ()
Month to date snowfall 0.0 0.0  
Since 1 July snowfall 0.0 0.0  
Since 1 September snowfall 0.0 0.0  
Snow Depth 0.00 in    
Sea Level Pressure  
Sea Level Pressure 30.01 in    
Wind  
Wind Speed 6 mph (SSW)    
Max Wind Speed 12 mph    
Max Gust Speed 15 mph    
Visibility 8 miles    
Events      
T = Trace of Precipitation, MM = Missing Value Source: NWS Daily Summary

Daily Weather History Graph

Daily Weather History Graph

Search for Another Location

Airport:

Trip Planner

Search our weather history database for the weather conditions in past years. The results will help you decide how hot, cold, wet, or windy it might be!

Date:

Astronomy

Oct. 01, 2013 Rise Set
Actual Time 7:17 AM EDT 7:01 PM EDT
Civil Twilight 6:50 AM EDT 7:29 PM EDT
Nautical Twilight 6:17 AM EDT 8:02 PM EDT
Astronomical Twilight 5:44 AM EDT 8:34 PM EDT
Moon 3:47 AM EDT (10/1) 5:07 PM EDT (10/1)
Length of Visible Light 12h 39m
Length of Day
11h 43m
Waning Crescent, 12% of the Moon is Illuminated
Oct 1
Waning Crescent
Oct 4
New
Oct 11
First Quarter
Oct 18
Full
Oct 26
Last Quarter

Hourly Weather History & Observations

Time (EDT) Temp. Dew Point Humidity Pressure Visibility Wind Dir Wind Speed Gust Speed Precip Events Conditions
12:51 AM 60.1 °F 55.9 °F 86% 30.00 in 7.0 mi SSW 3.5 mph - N/A   Mostly Cloudy
1:51 AM 61.0 °F 57.0 °F 87% 30.00 in 9.0 mi South 3.5 mph - N/A   Overcast
2:51 AM 61.0 °F 55.9 °F 83% 30.00 in 10.0 mi SSW 6.9 mph - N/A   Scattered Clouds
3:51 AM 61.0 °F 57.0 °F 87% 29.99 in 10.0 mi SSW 6.9 mph - N/A   Scattered Clouds
4:51 AM 60.1 °F 55.9 °F 86% 30.00 in 10.0 mi SSW 6.9 mph - N/A   Scattered Clouds
5:51 AM 59.0 °F 55.9 °F 90% 30.02 in 8.0 mi SSW 4.6 mph - N/A   Partly Cloudy
6:51 AM 59.0 °F 55.9 °F 90% 30.03 in 7.0 mi South 5.8 mph - N/A   Partly Cloudy
7:12 AM 59.0 °F 55.4 °F 88% 30.04 in 6.0 mi South 4.6 mph - N/A   Mostly Cloudy
7:51 AM 59.0 °F 55.9 °F 90% 30.04 in 4.0 mi South 4.6 mph - N/A   Overcast
8:03 AM 60.8 °F 57.2 °F 88% 30.05 in 5.0 mi South 4.6 mph - N/A   Overcast
8:51 AM 62.1 °F 57.9 °F 86% 30.05 in 5.0 mi SSW 4.6 mph - N/A   Overcast
9:51 AM 63.0 °F 59.0 °F 87% 30.06 in 4.0 mi SSW 9.2 mph - N/A   Overcast
10:51 AM 64.9 °F 60.1 °F 84% 30.06 in 5.0 mi South 5.8 mph - N/A   Haze
11:14 AM 66.2 °F 60.8 °F 83% 30.06 in 6.0 mi South 8.1 mph - N/A   Haze
11:46 AM 68.0 °F 60.8 °F 78% 30.05 in 7.0 mi SSW 8.1 mph - N/A   Overcast
11:51 AM 68.0 °F 60.1 °F 76% 30.05 in 8.0 mi SW 8.1 mph - N/A   Overcast
12:51 PM 69.1 °F 60.1 °F 73% 30.03 in 9.0 mi West 4.6 mph - N/A   Scattered Clouds
1:51 PM 71.1 °F 61.0 °F 70% 30.02 in 8.0 mi West 6.9 mph - N/A   Clear
2:51 PM 73.0 °F 59.0 °F 61% 30.00 in 10.0 mi WNW 9.2 mph - N/A   Clear
3:51 PM 73.9 °F 59.0 °F 59% 29.99 in 10.0 mi West 6.9 mph - N/A   Clear
4:51 PM 71.1 °F 59.0 °F 66% 29.98 in 10.0 mi WSW 6.9 mph - N/A   Clear
5:51 PM 72.0 °F 57.0 °F 59% 29.98 in 10.0 mi West 5.8 mph - N/A   Clear
6:51 PM 68.0 °F 57.9 °F 70% 29.98 in 10.0 mi Calm Calm - N/A   Clear
7:51 PM 64.0 °F 57.9 °F 80% 29.98 in 10.0 mi South 3.5 mph - N/A   Clear
8:51 PM 64.0 °F 59.0 °F 84% 29.98 in 10.0 mi South 4.6 mph - N/A   Clear
9:51 PM 64.0 °F 57.0 °F 78% 29.98 in 10.0 mi SSW 5.8 mph - N/A   Clear
10:51 PM 66.0 °F 57.0 °F 73% 29.98 in 10.0 mi SSW 6.9 mph - N/A   Clear
11:51 PM 64.9 °F 57.0 °F 75% 29.98 in 10.0 mi SSW 8.1 mph - N/A   Clear